FW5449 Weather Reports


time (UTC)temp
F
wind
direction
speed
knots
gust
knots
rain 1hr
in
rain 24hr
in
rain mn
in
humidity
%
barometer
mb
20260505094240 54 227 3.5 5.2 0.00 0.00 0.00 86 1014.6
20260505093957 54 243 3.5 5.2 0.00 0.00 0.00 86 1014.4
20260505093237 54 233 3.5 7.0 0.00 0.00 0.00 86 1014.5
20260505092729 54 219 4.3 7.0 0.00 0.00 0.00 86 1014.5
20260505092229 54 232 3.5 7.0 0.00 0.00 0.00 86 1014.4
20260505091728 54 233 2.6 5.2 0.00 0.00 0.00 86 1014.4
20260505091225 54 209 2.6 5.2 0.00 0.00 0.00 86 1014.4
20260505090945 54 206 1.7 5.2 0.00 0.00 0.00 86 1014.4
20260505090224 54 206 1.7 3.5 0.00 0.00 0.00 86 1014.6
20260505085713 54 223 2.6 4.3 0.00 0.00 0.00 86 1014.4
20260505085214 54 223 2.6 4.3 0.00 0.00 0.00 86 1014.5
20260505084716 54 227 3.5 4.3 0.00 0.00 0.00 85 1014.5
20260505084213 54 229 2.6 4.3 0.00 0.00 0.00 85 1014.5
20260505083714 54 242 2.6 5.2 0.00 0.00 0.00 85 1014.4
20260505083214 54 192 1.7 5.2 0.00 0.00 0.00 85 1014.4
20260505082714 54 229 1.7 3.5 0.00 0.00 0.00 86 1014.5
20260505082204 54 229 1.7 3.5 0.00 0.00 0.00 85 1014.6
20260505081659 54 210 2.6 3.5 0.00 0.00 0.00 85 1014.6
20260505081159 54 231 2.6 4.3 0.00 0.00 0.00 85 1014.5
20260505080917 54 235 2.6 6.1 0.00 0.00 0.00 85 1014.6
20260505080158 54 212 3.5 6.1 0.00 0.00 0.00 85 1014.6
20260505075659 54 211 3.5 7.0 0.00 0.00 0.00 85 1014.6
20260505075422 54 245 3.5 7.0 0.00 0.00 0.00 85 1014.7
20260505074658 54 236 5.2 9.6 0.00 0.00 0.00 85 1014.6
20260505074420 54 227 5.2 9.6 0.00 0.00 0.00 85 1014.6
20260505073656 54 215 4.3 7.8 0.00 0.00 0.00 85 1014.7
20260505073157 55 216 5.2 9.6 0.00 0.00 0.00 85 1014.6
20260505072653 55 217 5.2 9.6 0.00 0.00 0.00 84 1014.7
20260505072407 55 224 4.3 7.8 0.00 0.00 0.00 84 1014.6
20260505071650 55 229 5.2 9.6 0.00 0.00 0.00 84 1014.6
20260505071154 55 241 6.1 9.6 0.00 0.00 0.00 84 1014.6
20260505070651 55 226 6.1 9.6 0.00 0.00 0.00 84 1014.5
20260505070148 55 233 7.0 11.3 0.00 0.00 0.00 84 1014.5
20260505065651 55 237 7.0 11.3 0.00 0.00 0.00 84 1014.6
20260505065406 55 220 6.1 9.6 0.00 0.00 0.00 84 1014.5
20260505064647 55 254 5.2 8.7 0.00 0.00 0.00 84 1014.5
20260505064145 55 229 5.2 9.6 0.00 0.00 0.00 84 1014.4
20260505063646 55 236 6.1 9.6 0.00 0.00 0.00 84 1014.4
20260505063625 55 249 6.1 10.4 0.00 0.00 0.00 84 1014.4
20260505062623 55 220 7.0 10.4 0.00 0.00 0.00 84 1014.4
20260505062109 55 215 6.1 9.6 0.00 0.00 0.00 83 1014.5
20260505061600 55 237 5.2 8.7 0.00 0.00 0.00 83 1014.4
20260505061540 55 235 4.3 7.8 0.00 0.00 0.00 83 1014.5
20260505060559 55 254 6.1 11.3 0.00 0.00 0.00 83 1014.5
20260505060055 55 246 6.1 11.3 0.00 0.00 0.00 83 1014.4
20260505055557 55 236 5.2 9.6 0.00 0.00 0.00 83 1014.4
20260505055054 55 222 5.2 9.6 0.00 0.00 0.00 83 1014.4
20260505054551 55 243 5.2 9.6 0.00 0.00 0.00 83 1014.3
20260505054050 55 231 5.2 9.6 0.00 0.00 0.00 83 1014.4
20260505053551 55 216 5.2 8.7 0.00 0.00 0.00 83 1014.3
20260505053051 55 245 6.1 9.6 0.00 0.00 0.00 83 1014.2
20260505052814 55 249 6.1 10.4 0.00 0.00 0.00 83 1014.2
20260505052049 55 223 5.2 10.4 0.00 0.00 0.00 83 1014.3
20260505051547 55 225 6.1 8.7 0.00 0.00 0.00 83 1014.4
20260505051047 55 248 6.1 8.7 0.00 0.00 0.00 83 1014.3
20260505051036 55 217 6.1 8.7 0.00 0.00 0.00 83 1014.2
20260505050307 55 233 6.1 10.4 0.00 0.00 0.00 83 1014.1
20260505041539 55 220 6.1 12.2 0.00 0.00 0.00 83 1013.6
20260505041038 55 233 6.1 9.6 0.00 0.00 0.00 83 1013.5
20260505040537 55 226 7.0 9.6 0.00 0.00 0.00 83 1013.5
20260505040038 55 222 6.1 9.6 0.00 0.00 0.00 83 1013.3
20260505035537 55 225 6.1 9.6 0.00 0.00 0.00 83 1013.1
20260505035038 55 233 6.1 10.4 0.00 0.00 0.00 83 1013.3
20260505034536 55 172 6.1 10.4 0.00 0.00 0.00 83 1013.1
20260505034035 55 194 5.2 10.4 0.00 0.00 0.00 83 1013.1
20260505033534 56 189 5.2 10.4 0.00 0.00 0.00 83 1013.0
20260505033032 56 227 5.2 10.4 0.00 0.00 0.00 82 1013.0
20260505032536 56 253 6.1 9.6 0.00 0.00 0.00 82 1012.9
20260505032034 56 232 6.1 11.3 0.00 0.00 0.00 81 1012.9
20260505031533 57 221 6.1 11.3 0.00 0.00 0.00 81 1012.8
20260505031032 57 229 6.1 9.6 0.00 0.00 0.00 80 1012.8
20260505030531 57 238 7.0 11.3 0.00 0.00 0.00 80 1012.6
20260505030032 58 228 7.0 11.3 0.00 0.00 0.00 79 1012.5
20260505025531 58 236 6.1 11.3 0.00 0.00 0.00 79 1012.5
20260505025030 58 241 6.1 11.3 0.00 0.00 0.00 79 1012.4
20260505024531 58 223 6.1 9.6 0.00 0.00 0.00 78 1012.3
20260505024026 59 216 5.2 9.6 0.00 0.00 0.00 78 1012.2
20260505023525 59 216 5.2 8.7 0.00 0.00 0.00 78 1012.2
20260505023244 59 212 6.1 12.2 0.00 0.00 0.00 78 1012.2
20260505022524 59 259 7.8 12.2 0.00 0.00 0.00 77 1012.1
20260505022019 60 230 8.7 12.2 0.00 0.00 0.00 76 1012.1
20260505021519 60 230 7.8 13.0 0.00 0.00 0.00 76 1012.1
20260505021012 60 227 7.8 13.0 0.00 0.00 0.00 75 1012.1
20260505020510 61 218 7.0 11.3 0.00 0.00 0.00 75 1012.1
20260505020011 61 224 7.0 11.3 0.00 0.00 0.00 75 1012.1
20260505015511 61 231 7.8 14.8 0.00 0.00 0.00 75 1012.1
20260505015007 61 236 7.8 14.8 0.00 0.00 0.00 74 1012.2
20260505014507 62 260 8.7 13.9 0.00 0.00 0.00 74 1012.1
20260505013958 62 229 9.6 14.8 0.00 0.00 0.00 74 1012.2
20260505013457 62 211 9.6 14.8 0.00 0.00 0.00 73 1012.2
20260505013000 62 233 9.6 14.8 0.00 0.00 0.00 72 1012.0
20260505012456 63 270 9.6 14.8 0.00 0.00 0.00 72 1012.2
20260505011956 63 241 10.4 13.9 0.00 0.00 0.00 72 1012.1
20260505011719 63 237 9.6 13.9 0.00 0.00 0.00 72 1012.2
20260505010954 64 231 8.7 13.9 0.00 0.00 0.00 71 1012.1
20260505010454 64 221 8.7 14.8 0.00 0.00 0.00 70 1012.2
20260505005952 64 261 8.7 14.8 0.00 0.00 0.00 71 1012.1
20260505005452 64 232 8.7 13.9 0.00 0.00 0.00 70 1012.3
20260505004952 65 230 8.7 13.9 0.00 0.00 0.00 70 1012.2
20260505004448 65 275 8.7 15.6 0.00 0.00 0.00 69 1012.2
20260505003950 65 226 9.6 16.5 0.00 0.00 0.00 70 1012.3
20260505003708 65 243 9.6 16.5 0.00 0.00 0.00 69 1012.2
20260505003215 65 243 8.7 14.8 0.00 0.00 0.00 70 1012.1
20260505002448 66 249 8.7 14.8 0.00 0.00 0.00 68 1012.0
20260505001946 66 250 8.7 14.8 0.00 0.00 0.00 68 1012.1
20260505001445 67 243 8.7 13.9 0.00 0.00 0.00 68 1012.1
20260505000946 67 250 8.7 13.9 0.00 0.00 0.00 66 1012.1
20260505000444 67 251 7.0 13.0 0.00 0.00 0.00 68 1012.1
20260504235941 67 251 7.8 15.6 0.00 0.00 0.00 68 1012.2
20260504235702 67 244 9.6 15.6 0.00 0.00 0.00 67 1012.2
20260504234942 67 225 8.7 14.8 0.00 0.00 0.00 67 1012.3
20260504234441 67 223 7.8 13.9 0.00 0.00 0.00 67 1012.1
20260504233939 67 235 7.0 13.9 0.00 0.00 0.00 67 1012.1
20260504233442 68 252 7.0 11.3 0.00 0.00 0.00 67 1012.1
20260504232939 68 231 7.8 12.2 0.00 0.00 0.00 67 1012.2
20260504232436 68 256 7.8 12.2 0.00 0.00 0.00 67 1012.2
20260504232159 68 238 7.8 13.0 0.00 0.00 0.00 68 1012.2
20260504231433 68 226 7.8 13.0 0.00 0.00 0.00 67 1012.4
20260504230932 68 252 7.8 13.0 0.00 0.00 0.00 68 1012.4
20260504230427 68 225 7.8 13.0 0.00 0.00 0.00 68 1012.4
20260504225927 68 249 7.8 13.0 0.00 0.00 0.00 69 1012.6
20260504225428 68 229 7.8 13.0 0.00 0.00 0.00 66 1012.5
20260504224924 68 237 7.0 12.2 0.00 0.00 0.00 66 1012.7
20260504224424 69 254 7.8 13.9 0.00 0.00 0.00 66 1012.7
20260504223922 69 305 7.8 13.9 0.00 0.00 0.00 67 1012.8
20260504223421 69 243 7.0 13.0 0.00 0.00 0.00 66 1012.7
20260504223142 69 258 7.0 13.0 0.00 0.00 0.00 64 1012.9
20260504222415 69 310 7.0 11.3 0.00 0.00 0.00 66 1013.1
20260504221918 69 227 7.0 12.2 0.00 0.00 0.00 67 1013.0
20260504221641 69 250 7.8 12.2 0.00 0.00 0.00 65 1013.1
20260504220910 69 270 7.0 12.2 0.00 0.00 0.00 65 1013.2
20260504220411 69 256 7.0 12.2 0.00 0.00 0.00 64 1013.2
20260504220347 69 238 7.0 12.2 0.00 0.00 0.00 66 1013.2
20260504215409 70 221 7.0 13.0 0.00 0.00 0.00 65 1013.3
20260504214909 69 265 6.1 13.0 0.00 0.00 0.00 65 1013.2
20260504214407 69 249 7.0 11.3 0.00 0.00 0.00 67 1013.2
20260504214130 68 220 6.1 11.3 0.00 0.00 0.00 66 1013.2
20260504213404 67 259 4.3 9.6 0.00 0.00 0.00 69 1013.2
20260504212902 66 230 4.3 8.7 0.00 0.00 0.00 70 1013.3
20260504212403 67 225 4.3 9.6 0.00 0.00 0.00 69 1013.2
20260504211902 66 161 4.3 9.6 0.00 0.00 0.00 70 1013.3
20260504211401 65 255 3.5 8.7 0.00 0.00 0.00 69 1013.4
20260504211118 65 227 3.5 8.7 0.00 0.00 0.00 69 1013.4
20260504210400 65 260 2.6 7.8 0.00 0.00 0.00 69 1013.4
20260504205859 64 186 2.6 7.8 0.00 0.00 0.00 72 1013.4
20260504205619 65 191 2.6 7.8 0.00 0.00 0.00 68 1013.4
20260504204859 65 229 1.7 6.1 0.00 0.00 0.00 69 1013.5
20260504204357 64 254 1.7 7.0 0.00 0.00 0.00 73 1013.5
20260504203855 64 237 3.5 7.8 0.00 0.00 0.00 71 1013.6
20260504203354 63 194 3.5 7.8 0.00 0.00 0.00 72 1013.6
20260504203123 63 196 4.3 10.4 0.00 0.00 0.00 73 1013.5
20260504202357 63 229 4.3 10.4 0.00 0.00 0.00 72 1013.6
20260504201853 63 218 4.3 9.6 0.00 0.00 0.00 72 1013.6
20260504201355 62 219 3.5 9.6 0.00 0.00 0.00 73 1013.6
20260504200855 62 139 3.5 7.8 0.00 0.00 0.00 72 1013.8
20260504200352 62 232 4.3 7.8 0.00 0.00 0.00 73 1013.6
20260504200114 62 192 4.3 7.8 0.00 0.00 0.00 74 1013.6
20260504195351 62 187 4.3 7.0 0.00 0.00 0.00 74 1013.8
20260504194849 61 206 4.3 8.7 0.00 0.00 0.00 74 1013.8
20260504194349 61 162 4.3 8.7 0.00 0.00 0.00 75 1013.6
20260504193848 61 235 3.5 7.8 0.00 0.00 0.00 76 1013.6
20260504193346 61 126 3.5 7.8 0.00 0.00 0.00 76 1013.6
20260504192846 61 212 4.3 7.8 0.00 0.00 0.00 74 1013.8
20260504192345 61 214 4.3 8.7 0.00 0.00 0.00 74 1013.8
20260504191847 61 226 5.2 8.7 0.00 0.00 0.00 75 1013.8
20260504191347 61 244 5.2 8.7 0.00 0.00 0.00 75 1013.8
20260504191112 61 201 4.3 7.8 0.00 0.00 0.00 76 1013.9
20260504190606 61 221 3.5 7.0 0.00 0.00 0.00 75 1013.9
20260504185847 60 231 2.6 7.0 0.00 0.00 0.00 77 1014.0
20260504185345 60 169 3.5 8.7 0.00 0.00 0.00 76 1014.0
20260504185337 60 219 4.3 8.7 0.00 0.00 0.00 78 1014.1
20260504184344 60 229 3.5 7.8 0.00 0.00 0.00 78 1014.1
20260504184100 59 212 3.5 7.8 0.00 0.00 0.00 77 1014.1
20260504183337 59 224 3.5 7.8 0.00 0.00 0.00 78 1014.1
20260504182837 59 164 3.5 7.8 0.00 0.00 0.00 78 1014.2
20260504182332 58 235 3.5 7.8 0.00 0.00 0.00 79 1014.1
20260504182055 58 212 2.6 7.0 0.00 0.00 0.00 79 1014.1
20260504181556 58 231 3.5 7.0 0.00 0.00 0.00 79 1014.1
20260504180822 58 217 3.5 7.0 0.00 0.00 0.00 79 1014.1
20260504180322 58 240 2.6 7.0 0.00 0.00 0.00 80 1014.2
20260504175823 58 228 2.6 7.0 0.00 0.00 0.00 79 1014.3
20260504175542 58 212 2.6 6.1 0.00 0.00 0.00 80 1014.2
20260504174817 57 154 3.5 7.8 0.00 0.00 0.00 81 1014.2
20260504174312 57 187 3.5 7.8 0.00 0.00 0.00 81 1014.1
20260504173811 57 138 2.6 6.1 0.00 0.00 0.00 82 1014.2
20260504173310 57 196 3.5 7.0 0.00 0.00 0.00 81 1014.4
20260504172309 57 225 2.6 6.1 0.00 0.00 0.00 82 1014.3
20260504171809 57 166 3.5 7.8 0.00 0.00 0.00 82 1014.4
20260504171310 57 201 3.5 7.8 0.00 0.00 0.00 82 1014.2
20260504170810 56 190 3.5 6.1 0.00 0.00 0.00 82 1014.2
20260504170532 57 191 2.6 6.1 0.00 0.00 0.00 83 1014.2
20260504160257 55 177 3.5 7.0 0.00 0.00 0.00 84 1014.0
20260504151011 55 230 3.5 8.7 0.00 0.00 0.00 84 1013.8
20260504150250 55 223 3.5 7.8 0.00 0.00 0.00 84 1013.8
20260504141224 54 190 4.3 8.7 0.00 0.00 0.00 86 1013.4
20260504140725 54 200 3.5 7.8 0.00 0.00 0.00 86 1013.3
20260504140218 54 161 3.5 6.1 0.00 0.00 0.00 86 1013.2
20260504130711 54 181 1.7 3.5 0.00 0.00 0.00 87 1012.9
20260504130202 54 187 1.7 5.2 0.00 0.00 0.00 87 1012.8
20260504110545 54 196 1.7 4.3 0.00 0.00 0.00 86 1012.4
20260504100535 54 216 4.3 8.7 0.00 0.00 0.00 86 1012.2